This is the latest recevied weather packets stored in our database for station/object JS1SZZ-13. If no packets are shown the sender has not sent any weather packets the latest 10 day(s).
| Time | Temp. | Humidity | Pressure | Rain* | Wind** | Luminosity | Snow |
|---|---|---|---|---|---|---|---|
| 1778115600 | 25.56° C | 40% | 1011 hPa | 0 mm | - | - | - |
| 1778114700 | 25° C | 39% | 1011 hPa | 0 mm | - | - | - |
| 1778113799 | 24.44° C | 43% | 1011.5 hPa | 0 mm | - | - | - |
| 1778112900 | 23.33° C | 49% | 1011.4 hPa | 0 mm | - | - | - |
| 1778112000 | 22.22° C | 49% | 1011.8 hPa | 0 mm | - | - | - |
| 1778111100 | 21.67° C | 51% | 1012 hPa | 0 mm | - | - | - |
| 1778110200 | 20.56° C | 48% | 1012.4 hPa | 0 mm | - | - | - |
| 1778109299 | 20° C | 50% | 1012.9 hPa | 0 mm | - | - | - |
| 1778108399 | 18.33° C | 56% | 1013.2 hPa | 0 mm | - | - | - |
| 1778107501 | 17.78° C | 55% | 1013.6 hPa | 0 mm | - | - | - |
| 1778106600 | 16.67° C | 64% | 1013.8 hPa | 0 mm | - | - | - |
| 1778105700 | 15.56° C | 65% | 1013.9 hPa | 0 mm | - | - | - |
| 1778104799 | 15° C | 69% | 1014 hPa | 0 mm | - | - | - |
| 1778103901 | 13.89° C | 70% | 1014.1 hPa | 0 mm | - | - | - |
| 1778103000 | 13.33° C | 75% | 1014.1 hPa | 0 mm | - | - | - |
| 1778102101 | 12.22° C | 84% | 1014.3 hPa | 0 mm | - | - | - |
| 1778101200 | 11.11° C | 91% | 1014.4 hPa | 0 mm | - | - | - |
| 1778100300 | 8.89° C | 94% | 1014.4 hPa | 0 mm | - | - | - |
| 1778099401 | 7.78° C | 94% | 1014.5 hPa | 0 mm | - | - | - |
| 1778098500 | 7.22° C | 95% | 1014.5 hPa | 0 mm | - | - | - |
| 1778097600 | 7.22° C | 94% | 1014.5 hPa | 0 mm | - | - | - |
| 1778096699 | 7.22° C | 94% | 1014.7 hPa | 0 mm | - | - | - |
| 1778095800 | 7.22° C | 94% | 1014.7 hPa | 0 mm | - | - | - |
| 1778094899 | 7.78° C | 93% | 1014.6 hPa | 0 mm | - | - | - |
| 1778094001 | 7.78° C | 93% | 1014.7 hPa | 0 mm | - | - | - |
* Rain latest hour (hover to see other rain measurements)
** Current wind speed in m/s (hover to see current wind gust speed)